Location: Unspecified
(51.3762°N, 0.0000°E)
Time: 03:37:10
(UTC+00:00)

Tiangong 2 - Pass Details

Date: 26 May 2019
Orbit: 376 x 388 km, 42.8° (Epoch: 25 June)

Event Time Altitude Azimuth Distance (km) Brightness Sun altitude
Rises 21:21:42 0° 254° (WSW) 2,236 5.2 -9.8°
Reaches altitude 10° 21:24:35 10° 224° (SW) 1,382 3.8 -10.1°
Maximum altitude 21:26:05 13° 195° (SSW) 1,225 3.2 -10.2°
Enters shadow 21:26:52 12° 180° (S) 1,268 3.2 -10.3°
